Time,TemperatureF,DewpointF,PressureIn,WindDirection,WindDirectionDegrees,WindSpeedMPH,WindSpeedGustMPH,Humidity,HourlyPrecipIn,Conditions,Clouds,dailyrainin,SoftwareType,DateUTC
2013-09-26 00:01:00,59.7,37.0,29.32,East,92,0.0,1.0,43,0.00,,,0.00,WUHU216DAVISVP2,2013-09-26 06:01:00,
2013-09-26 00:06:00,60.1,36.3,29.32,ENE,61,0.0,3.0,41,0.00,,,0.00,WUHU216DAVISVP2,2013-09-26 06:06:00,
2013-09-26 00:11:00,60.6,35.5,29.32,ENE,62,0.0,3.0,39,0.00,,,0.00,WUHU216DAVISVP2,2013-09-26 06:11:00,
2013-09-26 00:16:00,60.6,35.3,29.32,SE,128,0.0,3.0,39,0.00,,,0.00,WUHU216DAVISVP2,2013-09-26 06:16:00,
2013-09-26 00:21:00,60.8,35.5,29.32,East,89,0.0,3.0,39,0.00,,,0.00,WUHU216DAVISVP2,2013-09-26 06:21:00,
2013-09-26 00:26:00,60.5,35.2,29.32,East,89,0.0,2.0,39,0.00,,,0.00,WUHU216DAVISVP2,2013-09-26 06:26:00,
2013-09-26 00:31:00,60.3,35.1,29.32,SSE,159,0.0,2.0,39,0.00,,,0.00,WUHU216DAVISVP2,2013-09-26 06:31:00,
2013-09-26 00:36:00,60.5,35.2,29.32,SSE,165,0.0,1.0,39,0.00,,,0.00,WUHU216DAVISVP2,2013-09-26 06:36:00,
2013-09-26 00:41:00,60.4,35.1,29.32,SSE,158,0.0,1.0,39,0.00,,,0.00,WUHU216DAVISVP2,2013-09-26 06:41:00,
2013-09-26 00:46:00,60.5,34.6,29.32,East,81,0.0,2.0,38,0.00,,,0.00,WUHU216DAVISVP2,2013-09-26 06:46:00,
2013-09-26 00:51:00,60.8,35.5,29.32,East,83,0.0,2.0,39,0.00,,,0.00,WUHU216DAVISVP2,2013-09-26 06:51:00,
2013-09-26 00:56:00,60.7,34.3,29.32,SSE,152,0.0,2.0,37,0.00,,,0.00,WUHU216DAVISVP2,2013-09-26 06:56:00,
2013-09-26 01:01:00,60.7,34.3,29.32,SSE,155,0.0,2.0,37,0.00,,,0.00,WUHU216DAVISVP2,2013-09-26 07:01:00,
2013-09-26 01:06:00,60.8,33.5,29.32,SSE,155,0.0,1.0,36,0.00,,,0.00,WUHU216DAVISVP2,2013-09-26 07:06:00,
2013-09-26 01:11:00,60.9,34.3,29.32,NE,48,0.0,2.0,37,0.00,,,0.00,WUHU216DAVISVP2,2013-09-26 07:11:00,
2013-09-26 01:16:00,61.5,34.1,29.33,SE,133,0.0,3.0,36,0.00,,,0.00,WUHU216DAVISVP2,2013-09-26 07:16:00,
2013-09-26 01:21:00,61.7,33.6,29.33,SSE,153,0.0,3.0,35,0.00,,,0.00,WUHU216DAVISVP2,2013-09-26 07:21:00,
2013-09-26 01:26:00,61.8,35.1,29.33,SSW,207,0.0,3.0,37,0.00,,,0.00,WUHU216DAVISVP2,2013-09-26 07:26:00,
2013-09-26 01:31:00,61.6,34.2,29.33,East,98,0.0,3.0,36,0.00,,,0.00,WUHU216DAVISVP2,2013-09-26 07:31:00,
2013-09-26 01:36:00,61.1,34.4,29.33,East,96,5.0,5.0,37,0.00,,,0.00,WUHU216DAVISVP2,2013-09-26 07:36:00,
2013-09-26 01:41:00,63.4,32.8,29.33,East,86,1.0,5.0,32,0.00,,,0.00,WUHU216DAVISVP2,2013-09-26 07:41:00,
2013-09-26 01:46:00,64.1,34.2,29.35,NW,305,2.0,7.0,33,0.00,,,0.00,WUHU216DAVISVP2,2013-09-26 07:46:00,
2013-09-26 01:51:00,63.2,36.3,29.35,WNW,289,3.0,7.0,37,0.00,,,0.00,WUHU216DAVISVP2,2013-09-26 07:51:00,
2013-09-26 01:56:00,62.0,37.9,29.35,WNW,294,1.0,8.0,41,0.00,,,0.00,WUHU216DAVISVP2,2013-09-26 07:56:00,
2013-09-26 02:01:00,61.0,39.5,29.37,NW,309,2.0,8.0,45,0.00,,,0.00,WUHU216DAVISVP2,2013-09-26 08:01:00,
2013-09-26 02:06:00,59.6,40.9,29.37,North,1,4.0,9.0,50,0.00,,,0.00,WUHU216DAVISVP2,2013-09-26 08:06:00,
2013-09-26 02:11:00,58.6,41.0,29.37,East,87,1.0,9.0,52,0.00,,,0.00,WUHU216DAVISVP2,2013-09-26 08:11:00,
2013-09-26 02:16:00,57.9,41.4,29.38,NW,326,4.0,9.0,54,0.00,,,0.00,WUHU216DAVISVP2,2013-09-26 08:16:00,
2013-09-26 02:21:00,57.4,41.4,29.38,WNW,296,3.0,9.0,55,0.00,,,0.00,WUHU216DAVISVP2,2013-09-26 08:21:00,
2013-09-26 02:26:00,56.9,41.0,29.39,NW,312,2.0,10.0,55,0.00,,,0.00,WUHU216DAVISVP2,2013-09-26 08:26:00,
2013-09-26 02:31:00,56.5,41.1,29.39,WNW,300,2.0,10.0,56,0.00,,,0.00,WUHU216DAVISVP2,2013-09-26 08:31:00,
2013-09-26 02:36:00,56.2,40.8,29.39,NW,311,1.0,10.0,56,0.00,,,0.00,WUHU216DAVISVP2,2013-09-26 08:36:00,
2013-09-26 02:41:00,55.8,40.9,29.40,WSW,243,3.0,10.0,57,0.00,,,0.00,WUHU216DAVISVP2,2013-09-26 08:41:00,
2013-09-26 02:46:00,55.4,40.5,29.40,NE,52,2.0,13.0,57,0.00,,,0.00,WUHU216DAVISVP2,2013-09-26 08:46:00,
2013-09-26 02:51:00,55.1,40.7,29.40,West,259,1.0,13.0,58,0.00,,,0.00,WUHU216DAVISVP2,2013-09-26 08:51:00,
2013-09-26 02:56:00,54.7,40.6,29.40,WNW,303,1.0,13.0,59,0.00,,,0.00,WUHU216DAVISVP2,2013-09-26 08:56:00,
2013-09-26 03:01:00,54.4,40.8,29.41,North,352,2.0,13.0,60,0.00,,,0.00,WUHU216DAVISVP2,2013-09-26 09:01:00,
2013-09-26 03:06:00,54.2,40.7,29.41,NW,305,3.0,6.0,60,0.00,,,0.00,WUHU216DAVISVP2,2013-09-26 09:06:00,
2013-09-26 03:11:00,54.0,41.0,29.42,WSW,250,2.0,7.0,61,0.00,,,0.00,WUHU216DAVISVP2,2013-09-26 09:11:00,
2013-09-26 03:16:00,53.7,40.7,29.42,NNW,327,1.0,7.0,61,0.00,,,0.00,WUHU216DAVISVP2,2013-09-26 09:16:00,
2013-09-26 03:21:00,53.4,40.8,29.42,North,351,3.0,7.0,62,0.00,,,0.00,WUHU216DAVISVP2,2013-09-26 09:21:00,
2013-09-26 03:26:00,53.2,41.0,29.42,NW,316,0.0,6.0,63,0.00,,,0.00,WUHU216DAVISVP2,2013-09-26 09:26:00,
2013-09-26 03:31:00,53.0,40.9,29.43,NW,320,0.0,8.0,63,0.00,,,0.00,WUHU216DAVISVP2,2013-09-26 09:31:00,
2013-09-26 03:36:00,52.8,41.1,29.43,NNE,18,0.0,8.0,64,0.00,,,0.00,WUHU216DAVISVP2,2013-09-26 09:36:00,
2013-09-26 03:41:00,52.5,40.8,29.44,NNW,328,1.0,8.0,64,0.00,,,0.00,WUHU216DAVISVP2,2013-09-26 09:41:00,
2013-09-26 03:46:00,52.4,41.0,29.44,NNW,346,1.0,8.0,65,0.00,,,0.00,WUHU216DAVISVP2,2013-09-26 09:46:00,
2013-09-26 03:51:00,52.2,40.8,29.45,NNW,329,0.0,4.0,65,0.00,,,0.00,WUHU216DAVISVP2,2013-09-26 09:51:00,
2013-09-26 03:56:00,51.9,41.0,29.45,NNE,15,1.0,4.0,66,0.00,,,0.00,WUHU216DAVISVP2,2013-09-26 09:56:00,
2013-09-26 04:01:00,51.8,40.9,29.45,NE,54,0.0,4.0,66,0.00,,,0.00,WUHU216DAVISVP2,2013-09-26 10:01:00,
2013-09-26 04:06:00,51.6,41.1,29.45,NW,304,1.0,4.0,67,0.00,,,0.00,WUHU216DAVISVP2,2013-09-26 10:06:00,
2013-09-26 04:11:00,51.4,40.9,29.46,WNW,289,0.0,4.0,67,0.00,,,0.00,WUHU216DAVISVP2,2013-09-26 10:11:00,
2013-09-26 04:16:00,51.2,41.1,29.46,NW,311,0.0,4.0,68,0.00,,,0.00,WUHU216DAVISVP2,2013-09-26 10:16:00,
2013-09-26 04:21:00,51.1,41.0,29.46,NNW,345,1.0,4.0,68,0.00,,,0.00,WUHU216DAVISVP2,2013-09-26 10:21:00,
2013-09-26 04:26:00,50.8,40.7,29.46,West,281,0.0,4.0,68,0.00,,,0.00,WUHU216DAVISVP2,2013-09-26 10:26:00,
2013-09-26 04:31:00,50.5,40.8,29.47,NNW,345,0.0,4.0,69,0.00,,,0.00,WUHU216DAVISVP2,2013-09-26 10:31:00,
2013-09-26 04:36:00,50.3,40.5,29.47,NNW,345,0.0,3.0,69,0.00,,,0.00,WUHU216DAVISVP2,2013-09-26 10:36:00,
2013-09-26 04:41:00,50.0,40.6,29.48,NNW,345,0.0,3.0,70,0.00,,,0.00,WUHU216DAVISVP2,2013-09-26 10:41:00,
2013-09-26 04:46:00,49.5,40.6,29.48,NNW,345,0.0,1.0,71,0.00,,,0.00,WUHU216DAVISVP2,2013-09-26 10:46:00,
2013-09-26 04:51:00,49.0,40.8,29.48,NNW,345,0.0,1.0,73,0.00,,,0.00,WUHU216DAVISVP2,2013-09-26 10:51:00,
2013-09-26 04:56:00,48.4,40.6,29.49,NNW,345,0.0,1.0,74,0.00,,,0.00,WUHU216DAVISVP2,2013-09-26 10:56:00,
2013-09-26 05:01:00,47.9,40.8,29.49,NW,314,0.0,1.0,76,0.00,,,0.00,WUHU216DAVISVP2,2013-09-26 11:01:00,
2013-09-26 05:06:00,47.8,41.0,29.49,NW,314,0.0,1.0,77,0.00,,,0.00,WUHU216DAVISVP2,2013-09-26 11:06:00,
2013-09-26 05:11:00,47.7,40.6,29.49,NNW,347,0.0,2.0,76,0.00,,,0.00,WUHU216DAVISVP2,2013-09-26 11:11:00,
2013-09-26 05:17:00,47.9,41.1,29.49,NNW,347,0.0,2.0,77,0.00,,,0.00,WUHU216DAVISVP2,2013-09-26 11:17:00,
2013-09-26 05:21:00,47.6,40.7,29.50,NNW,347,0.0,2.0,77,0.00,,,0.00,WUHU216DAVISVP2,2013-09-26 11:21:00,
2013-09-26 05:26:00,47.2,40.7,29.50,NNW,347,0.0,2.0,78,0.00,,,0.00,WUHU216DAVISVP2,2013-09-26 11:26:00,
2013-09-26 05:32:00,46.8,40.7,29.50,NNW,347,0.0,1.0,79,0.00,,,0.00,WUHU216DAVISVP2,2013-09-26 11:32:00,
2013-09-26 05:37:00,46.4,40.3,29.50,NNW,347,0.0,0.0,79,0.00,,,0.00,WUHU216DAVISVP2,2013-09-26 11:37:00,
2013-09-26 05:42:00,46.2,40.7,29.50,NNW,347,0.0,1.0,81,0.00,,,0.00,WUHU216DAVISVP2,2013-09-26 11:42:00,
2013-09-26 05:47:00,45.9,40.4,29.50,NNW,347,0.0,1.0,81,0.00,,,0.00,WUHU216DAVISVP2,2013-09-26 11:47:00,
2013-09-26 05:52:00,45.6,40.4,29.50,NNW,347,0.0,1.0,82,0.00,,,0.00,WUHU216DAVISVP2,2013-09-26 11:52:00,
2013-09-26 05:57:00,45.3,40.4,29.50,NNW,347,0.0,1.0,83,0.00,,,0.00,WUHU216DAVISVP2,2013-09-26 11:57:00,
2013-09-26 06:01:00,45.1,40.5,29.51,NNW,347,0.0,0.0,84,0.00,,,0.00,WUHU216DAVISVP2,2013-09-26 12:01:00,
2013-09-26 06:07:00,45.2,40.6,29.51,NNW,347,0.0,0.0,84,0.00,,,0.00,WUHU216DAVISVP2,2013-09-26 12:07:00,
2013-09-26 06:12:00,45.3,40.7,29.51,NNW,347,0.0,1.0,84,0.00,,,0.00,WUHU216DAVISVP2,2013-09-26 12:12:00,
2013-09-26 06:17:00,45.2,40.7,29.51,NNW,347,0.0,1.0,84,0.00,,,0.00,WUHU216DAVISVP2,2013-09-26 12:17:00,
2013-09-26 06:22:00,45.0,40.5,29.52,NNW,347,0.0,1.0,84,0.00,,,0.00,WUHU216DAVISVP2,2013-09-26 12:22:00,
2013-09-26 06:27:00,44.7,40.5,29.52,NNW,347,0.0,1.0,85,0.00,,,0.00,WUHU216DAVISVP2,2013-09-26 12:27:00,
2013-09-26 06:32:00,44.3,40.4,29.52,NNW,347,0.0,0.0,86,0.00,,,0.00,WUHU216DAVISVP2,2013-09-26 12:32:00,
2013-09-26 06:37:00,44.1,40.5,29.53,NNW,347,0.0,0.0,87,0.00,,,0.00,WUHU216DAVISVP2,2013-09-26 12:37:00,
2013-09-26 06:42:00,44.1,40.7,29.53,NNW,347,0.0,0.0,88,0.00,,,0.00,WUHU216DAVISVP2,2013-09-26 12:42:00,
2013-09-26 06:47:00,43.9,40.5,29.53,NNW,347,0.0,0.0,88,0.00,,,0.00,WUHU216DAVISVP2,2013-09-26 12:47:00,
2013-09-26 06:52:00,43.9,40.6,29.53,NNW,347,0.0,0.0,88,0.00,,,0.00,WUHU216DAVISVP2,2013-09-26 12:52:00,
2013-09-26 06:57:00,43.9,40.5,29.53,NNW,347,0.0,0.0,88,0.00,,,0.00,WUHU216DAVISVP2,2013-09-26 12:57:00,
2013-09-26 07:02:00,43.8,40.4,29.53,NNW,347,0.0,0.0,88,0.00,,,0.00,WUHU216DAVISVP2,2013-09-26 13:02:00,
2013-09-26 07:07:00,43.6,40.5,29.53,NNW,347,0.0,0.0,89,0.00,,,0.00,WUHU216DAVISVP2,2013-09-26 13:07:00,
2013-09-26 07:12:00,43.8,40.7,29.53,NNW,347,0.0,0.0,89,0.00,,,0.00,WUHU216DAVISVP2,2013-09-26 13:12:00,
2013-09-26 07:17:00,44.0,40.9,29.53,NNW,347,0.0,0.0,89,0.00,,,0.00,WUHU216DAVISVP2,2013-09-26 13:17:00,
2013-09-26 07:22:00,44.1,40.7,29.54,NNW,347,0.0,0.0,88,0.00,,,0.00,WUHU216DAVISVP2,2013-09-26 13:22:00,
2013-09-26 07:27:00,44.3,40.9,29.54,NNW,347,0.0,0.0,88,0.00,,,0.00,WUHU216DAVISVP2,2013-09-26 13:27:00,
2013-09-26 07:32:00,44.7,41.4,29.54,NNW,347,0.0,0.0,88,0.00,,,0.00,WUHU216DAVISVP2,2013-09-26 13:32:00,
2013-09-26 07:37:00,45.0,41.4,29.54,NNW,347,0.0,0.0,87,0.00,,,0.00,WUHU216DAVISVP2,2013-09-26 13:37:00,
2013-09-26 07:42:00,45.5,41.5,29.54,NNW,347,0.0,0.0,86,0.00,,,0.00,WUHU216DAVISVP2,2013-09-26 13:42:00,
2013-09-26 07:47:00,45.5,41.2,29.54,NNW,347,0.0,0.0,85,0.00,,,0.00,WUHU216DAVISVP2,2013-09-26 13:47:00,
2013-09-26 07:52:00,45.7,41.1,29.54,NNW,347,0.0,0.0,84,0.00,,,0.00,WUHU216DAVISVP2,2013-09-26 13:52:00,
2013-09-26 07:57:00,46.4,41.2,29.55,NNW,347,0.0,0.0,82,0.00,,,0.00,WUHU216DAVISVP2,2013-09-26 13:57:00,
2013-09-26 08:02:00,47.1,41.3,29.54,North,356,1.0,1.0,80,0.00,,,0.00,WUHU216DAVISVP2,2013-09-26 14:02:00,
2013-09-26 08:07:00,48.1,41.3,29.54,NNE,13,0.0,1.0,77,0.00,,,0.00,WUHU216DAVISVP2,2013-09-26 14:07:00,
2013-09-26 08:12:00,49.7,41.5,29.54,NE,35,0.0,2.0,73,0.00,,,0.00,WUHU216DAVISVP2,2013-09-26 14:12:00,
2013-09-26 08:17:00,50.7,41.7,29.55,NNE,27,0.0,2.0,71,0.00,,,0.00,WUHU216DAVISVP2,2013-09-26 14:17:00,
2013-09-26 08:22:00,51.4,41.7,29.55,NNE,24,1.0,4.0,69,0.00,,,0.00,WUHU216DAVISVP2,2013-09-26 14:22:00,
2013-09-26 08:27:00,51.8,41.7,29.55,NE,52,0.0,4.0,68,0.00,,,0.00,WUHU216DAVISVP2,2013-09-26 14:27:00,
2013-09-26 08:32:00,52.5,41.6,29.55,NE,38,0.0,4.0,66,0.00,,,0.00,WUHU216DAVISVP2,2013-09-26 14:32:00,
2013-09-26 08:37:00,52.9,41.6,29.55,ENE,60,2.0,4.0,65,0.00,,,0.00,WUHU216DAVISVP2,2013-09-26 14:37:00,
2013-09-26 08:42:00,53.4,41.6,29.55,NNW,345,1.0,3.0,64,0.00,,,0.00,WUHU216DAVISVP2,2013-09-26 14:42:00,
2013-09-26 08:47:00,53.4,41.2,29.55,NW,310,0.0,3.0,63,0.00,,,0.00,WUHU216DAVISVP2,2013-09-26 14:47:00,
2013-09-26 08:52:00,54.3,42.1,29.55,NE,52,0.0,3.0,63,0.00,,,0.00,WUHU216DAVISVP2,2013-09-26 14:52:00,
2013-09-26 08:57:00,54.8,41.7,29.55,NW,314,0.0,3.0,61,0.00,,,0.00,WUHU216DAVISVP2,2013-09-26 14:57:00,
2013-09-26 09:02:00,54.6,41.5,29.55,WNW,296,1.0,5.0,61,0.00,,,0.00,WUHU216DAVISVP2,2013-09-26 15:02:00,
2013-09-26 09:07:00,54.7,42.1,29.55,NW,323,1.0,5.0,62,0.00,,,0.00,WUHU216DAVISVP2,2013-09-26 15:07:00,
2013-09-26 09:12:00,54.9,41.4,29.55,WNW,295,0.0,5.0,60,0.00,,,0.00,WUHU216DAVISVP2,2013-09-26 15:12:00,
2013-09-26 09:17:00,55.0,41.0,29.55,WNW,293,0.0,5.0,59,0.00,,,0.00,WUHU216DAVISVP2,2013-09-26 15:17:00,
2013-09-26 09:22:00,55.7,41.7,29.55,East,83,0.0,3.0,59,0.00,,,0.00,WUHU216DAVISVP2,2013-09-26 15:22:00,
2013-09-26 09:27:00,56.3,41.3,29.55,NW,304,1.0,3.0,57,0.00,,,0.00,WUHU216DAVISVP2,2013-09-26 15:27:00,
2013-09-26 09:32:00,56.5,41.1,29.55,SW,233,0.0,2.0,56,0.00,,,0.00,WUHU216DAVISVP2,2013-09-26 15:32:00,
2013-09-26 09:37:00,57.1,41.5,29.55,East,86,0.0,2.0,56,0.00,,,0.00,WUHU216DAVISVP2,2013-09-26 15:37:00,
2013-09-26 09:42:00,57.4,41.4,29.55,NW,307,0.0,2.0,55,0.00,,,0.00,WUHU216DAVISVP2,2013-09-26 15:42:00,
2013-09-26 09:47:00,57.1,41.1,29.55,West,278,2.0,6.0,55,0.00,,,0.00,WUHU216DAVISVP2,2013-09-26 15:47:00,
2013-09-26 09:52:00,56.9,41.8,29.54,NW,307,1.0,6.0,57,0.00,,,0.00,WUHU216DAVISVP2,2013-09-26 15:52:00,
2013-09-26 09:57:00,57.0,41.4,29.54,WNW,290,2.0,6.0,56,0.00,,,0.00,WUHU216DAVISVP2,2013-09-26 15:57:00,
2013-09-26 10:02:00,57.2,41.7,29.54,WNW,299,0.0,6.0,56,0.00,,,0.00,WUHU216DAVISVP2,2013-09-26 16:02:00,
2013-09-26 10:07:00,57.5,42.0,29.54,ENE,71,0.0,4.0,56,0.00,,,0.00,WUHU216DAVISVP2,2013-09-26 16:07:00,
2013-09-26 10:12:00,57.7,41.7,29.54,ENE,62,0.0,4.0,55,0.00,,,0.00,WUHU216DAVISVP2,2013-09-26 16:12:00,
2013-09-26 10:17:00,57.9,42.4,29.54,NE,41,2.0,4.0,56,0.00,,,0.00,WUHU216DAVISVP2,2013-09-26 16:17:00,
2013-09-26 10:22:00,58.0,42.0,29.54,WSW,242,0.0,5.0,55,0.00,,,0.00,WUHU216DAVISVP2,2013-09-26 16:22:00,
2013-09-26 10:27:00,58.2,42.7,29.53,ENE,63,0.0,5.0,56,0.00,,,0.00,WUHU216DAVISVP2,2013-09-26 16:27:00,
2013-09-26 10:32:00,58.5,42.5,29.53,WNW,287,1.0,5.0,55,0.00,,,0.00,WUHU216DAVISVP2,2013-09-26 16:32:00,
2013-09-26 10:37:00,59.1,42.5,29.53,NNE,26,1.0,5.0,54,0.00,,,0.00,WUHU216DAVISVP2,2013-09-26 16:37:00,
2013-09-26 10:42:00,59.0,42.4,29.53,West,262,1.0,5.0,54,0.00,,,0.00,WUHU216DAVISVP2,2013-09-26 16:42:00,
2013-09-26 10:47:00,59.1,42.0,29.53,ESE,118,2.0,5.0,53,0.00,,,0.00,WUHU216DAVISVP2,2013-09-26 16:47:00,
2013-09-26 10:52:00,59.5,42.4,29.53,NNW,340,3.0,5.0,53,0.00,,,0.00,WUHU216DAVISVP2,2013-09-26 16:52:00,
2013-09-26 10:57:00,59.5,42.4,29.53,WSW,250,1.0,5.0,53,0.00,,,0.00,WUHU216DAVISVP2,2013-09-26 16:57:00,
2013-09-26 11:02:00,59.8,42.6,29.53,ESE,123,1.0,5.0,53,0.00,,,0.00,WUHU216DAVISVP2,2013-09-26 17:02:00,
2013-09-26 11:07:00,60.2,43.0,29.53,NNE,31,0.0,5.0,53,0.00,,,0.00,WUHU216DAVISVP2,2013-09-26 17:07:00,
2013-09-26 11:12:00,60.9,42.7,29.52,WNW,289,1.0,5.0,51,0.00,,,0.00,WUHU216DAVISVP2,2013-09-26 17:12:00,
2013-09-26 11:17:00,61.3,43.6,29.52,ENE,68,2.0,4.0,52,0.00,,,0.00,WUHU216DAVISVP2,2013-09-26 17:17:00,
2013-09-26 11:22:00,61.9,43.1,29.52,SSE,160,0.0,4.0,50,0.00,,,0.00,WUHU216DAVISVP2,2013-09-26 17:22:00,
2013-09-26 11:27:00,61.3,42.5,29.52,NE,53,0.0,5.0,50,0.00,,,0.00,WUHU216DAVISVP2,2013-09-26 17:27:00,
2013-09-26 11:32:00,61.4,43.7,29.52,East,96,0.0,5.0,52,0.00,,,0.00,WUHU216DAVISVP2,2013-09-26 17:32:00,
2013-09-26 11:37:00,61.7,42.9,29.52,ENE,60,1.0,6.0,50,0.00,,,0.00,WUHU216DAVISVP2,2013-09-26 17:37:00,
2013-09-26 11:42:00,61.7,43.4,29.52,NNW,335,2.0,6.0,51,0.00,,,0.00,WUHU216DAVISVP2,2013-09-26 17:42:00,
2013-09-26 11:47:00,62.4,43.5,29.52,SSW,193,2.0,8.0,50,0.00,,,0.00,WUHU216DAVISVP2,2013-09-26 17:47:00,
2013-09-26 11:52:00,62.5,43.1,29.51,ESE,108,0.0,8.0,49,0.00,,,0.00,WUHU216DAVISVP2,2013-09-26 17:52:00,
2013-09-26 11:57:00,62.6,43.2,29.51,North,356,0.0,8.0,49,0.00,,,0.00,WUHU216DAVISVP2,2013-09-26 17:57:00,
2013-09-26 12:02:00,62.9,43.4,29.51,North,4,1.0,8.0,49,0.00,,,0.00,WUHU216DAVISVP2,2013-09-26 18:02:00,
2013-09-26 12:07:00,63.3,43.3,29.51,WNW,283,3.0,5.0,48,0.00,,,0.00,WUHU216DAVISVP2,2013-09-26 18:07:00,
2013-09-26 12:12:00,63.2,42.0,29.51,WSW,238,0.0,5.0,46,0.00,,,0.00,WUHU216DAVISVP2,2013-09-26 18:12:00,
2013-09-26 12:17:00,62.9,43.4,29.51,North,9,1.0,5.0,49,0.00,,,0.00,WUHU216DAVISVP2,2013-09-26 18:17:00,
2013-09-26 12:22:00,63.3,42.1,29.51,South,186,1.0,4.0,46,0.00,,,0.00,WUHU216DAVISVP2,2013-09-26 18:22:00,
2013-09-26 12:27:00,63.7,42.5,29.51,SE,139,0.0,4.0,46,0.00,,,0.00,WUHU216DAVISVP2,2013-09-26 18:27:00,
2013-09-26 12:32:00,63.8,42.6,29.51,SW,225,0.0,4.0,46,0.00,,,0.00,WUHU216DAVISVP2,2013-09-26 18:32:00,
2013-09-26 12:37:00,63.2,42.0,29.51,SW,230,1.0,4.0,46,0.00,,,0.00,WUHU216DAVISVP2,2013-09-26 18:37:00,
2013-09-26 12:42:00,63.9,43.2,29.51,ENE,71,2.0,4.0,47,0.00,,,0.00,WUHU216DAVISVP2,2013-09-26 18:42:00,
2013-09-26 12:47:00,64.1,42.8,29.50,NE,39,2.0,6.0,46,0.00,,,0.00,WUHU216DAVISVP2,2013-09-26 18:47:00,
2013-09-26 12:52:00,64.7,44.0,29.50,East,99,4.0,6.0,47,0.00,,,0.00,WUHU216DAVISVP2,2013-09-26 18:52:00,
2013-09-26 12:57:00,64.6,43.3,29.50,NNE,15,1.0,6.0,46,0.00,,,0.00,WUHU216DAVISVP2,2013-09-26 18:57:00,
2013-09-26 13:02:00,65.2,44.5,29.50,East,91,1.0,5.0,47,0.00,,,0.00,WUHU216DAVISVP2,2013-09-26 19:02:00,
2013-09-26 13:07:00,65.1,43.2,29.50,East,84,1.0,5.0,45,0.00,,,0.00,WUHU216DAVISVP2,2013-09-26 19:07:00,
2013-09-26 13:12:00,65.7,43.1,29.50,South,179,0.0,5.0,44,0.00,,,0.00,WUHU216DAVISVP2,2013-09-26 19:12:00,
2013-09-26 13:17:00,66.5,43.8,29.49,NE,39,1.0,5.0,44,0.00,,,0.00,WUHU216DAVISVP2,2013-09-26 19:17:00,
2013-09-26 13:22:00,66.9,44.2,29.49,ESE,116,2.0,4.0,44,0.00,,,0.00,WUHU216DAVISVP2,2013-09-26 19:22:00,
2013-09-26 13:27:00,66.7,44.0,29.49,East,81,0.0,4.0,44,0.00,,,0.00,WUHU216DAVISVP2,2013-09-26 19:27:00,
2013-09-26 13:32:00,66.9,44.3,29.48,SSE,162,3.0,4.0,44,0.00,,,0.00,WUHU216DAVISVP2,2013-09-26 19:32:00,
2013-09-26 13:37:00,67.1,44.4,29.49,NE,51,1.0,4.0,44,0.00,,,0.00,WUHU216DAVISVP2,2013-09-26 19:37:00,
2013-09-26 13:42:00,67.7,43.0,29.49,SSW,210,2.0,4.0,41,0.00,,,0.00,WUHU216DAVISVP2,2013-09-26 19:42:00,
2013-09-26 13:47:00,67.4,43.4,29.48,WSW,251,3.0,4.0,42,0.00,,,0.00,WUHU216DAVISVP2,2013-09-26 19:47:00,
2013-09-26 13:52:00,67.2,43.2,29.48,WSW,256,1.0,4.0,42,0.00,,,0.00,WUHU216DAVISVP2,2013-09-26 19:52:00,
2013-09-26 13:57:00,68.1,44.0,29.48,NW,307,1.0,4.0,42,0.00,,,0.00,WUHU216DAVISVP2,2013-09-26 19:57:00,
2013-09-26 14:02:00,67.5,44.2,29.48,ESE,123,0.0,4.0,43,0.00,,,0.00,WUHU216DAVISVP2,2013-09-26 20:02:00,
2013-09-26 14:07:00,67.4,45.3,29.48,NNW,327,2.0,5.0,45,0.00,,,0.00,WUHU216DAVISVP2,2013-09-26 20:07:00,
2013-09-26 14:12:00,67.5,44.8,29.47,ENE,78,1.0,5.0,44,0.00,,,0.00,WUHU216DAVISVP2,2013-09-26 20:12:00,
2013-09-26 14:17:00,68.1,44.0,29.47,SE,136,1.0,6.0,42,0.00,,,0.00,WUHU216DAVISVP2,2013-09-26 20:17:00,
2013-09-26 14:22:00,68.2,44.1,29.48,SW,229,1.0,6.0,42,0.00,,,0.00,WUHU216DAVISVP2,2013-09-26 20:22:00,
2013-09-26 14:27:00,69.2,45.7,29.48,ESE,106,2.0,6.0,43,0.00,,,0.00,WUHU216DAVISVP2,2013-09-26 20:27:00,
2013-09-26 14:32:00,69.2,45.7,29.48,ESE,121,2.0,6.0,43,0.00,,,0.00,WUHU216DAVISVP2,2013-09-26 20:32:00,
2013-09-26 14:37:00,69.1,45.6,29.47,NW,314,4.0,5.0,43,0.00,,,0.00,WUHU216DAVISVP2,2013-09-26 20:37:00,
2013-09-26 14:42:00,68.3,44.9,29.48,West,268,1.0,5.0,43,0.00,,,0.00,WUHU216DAVISVP2,2013-09-26 20:42:00,
2013-09-26 14:47:00,68.8,45.9,29.47,NNE,31,2.0,5.0,44,0.00,,,0.00,WUHU216DAVISVP2,2013-09-26 20:47:00,
2013-09-26 14:52:00,68.9,45.4,29.48,NW,316,3.0,7.0,43,0.00,,,0.00,WUHU216DAVISVP2,2013-09-26 20:52:00,
2013-09-26 14:57:00,68.9,46.0,29.47,NW,314,0.0,7.0,44,0.00,,,0.00,WUHU216DAVISVP2,2013-09-26 20:57:00,
2013-09-26 15:02:00,69.2,46.3,29.47,WNW,292,3.0,7.0,44,0.00,,,0.00,WUHU216DAVISVP2,2013-09-26 21:02:00,
2013-09-26 15:07:00,69.4,45.9,29.47,East,88,0.0,7.0,43,0.00,,,0.00,WUHU216DAVISVP2,2013-09-26 21:07:00,
2013-09-26 15:12:00,70.0,46.4,29.47,NE,39,3.0,6.0,43,0.00,,,0.00,WUHU216DAVISVP2,2013-09-26 21:12:00,
2013-09-26 15:17:00,69.3,45.8,29.47,WNW,284,1.0,5.0,43,0.00,,,0.00,WUHU216DAVISVP2,2013-09-26 21:17:00,
2013-09-26 15:22:00,69.1,47.4,29.47,NW,324,2.0,8.0,46,0.00,,,0.00,WUHU216DAVISVP2,2013-09-26 21:22:00,
2013-09-26 15:27:00,69.6,46.7,29.46,NW,312,2.0,8.0,44,0.00,,,0.00,WUHU216DAVISVP2,2013-09-26 21:27:00,
2013-09-26 15:32:00,70.1,47.1,29.46,NE,42,1.0,8.0,44,0.00,,,0.00,WUHU216DAVISVP2,2013-09-26 21:32:00,
2013-09-26 15:37:00,70.1,47.1,29.47,North,11,3.0,8.0,44,0.00,,,0.00,WUHU216DAVISVP2,2013-09-26 21:37:00,
2013-09-26 15:42:00,70.3,47.9,29.46,North,353,0.0,4.0,45,0.00,,,0.00,WUHU216DAVISVP2,2013-09-26 21:42:00,
2013-09-26 15:47:00,71.0,47.3,29.46,NE,40,1.0,4.0,43,0.00,,,0.00,WUHU216DAVISVP2,2013-09-26 21:47:00,
2013-09-26 15:52:00,70.8,47.1,29.46,WNW,292,3.0,4.0,43,0.00,,,0.00,WUHU216DAVISVP2,2013-09-26 21:52:00,
2013-09-26 15:57:00,70.7,47.7,29.46,East,94,0.0,4.0,44,0.00,,,0.00,WUHU216DAVISVP2,2013-09-26 21:57:00,
2013-09-26 16:02:00,71.3,47.6,29.46,WNW,288,2.0,4.0,43,0.00,,,0.00,WUHU216DAVISVP2,2013-09-26 22:02:00,
2013-09-26 16:07:00,71.3,47.6,29.46,NW,313,0.0,5.0,43,0.00,,,0.00,WUHU216DAVISVP2,2013-09-26 22:07:00,
2013-09-26 16:12:00,71.0,47.9,29.46,NNW,333,2.0,6.0,44,0.00,,,0.00,WUHU216DAVISVP2,2013-09-26 22:12:00,
2013-09-26 16:17:00,70.6,46.9,29.46,NW,311,1.0,6.0,43,0.00,,,0.00,WUHU216DAVISVP2,2013-09-26 22:17:00,
2013-09-26 16:22:00,70.9,47.8,29.46,NNE,18,0.0,8.0,44,0.00,,,0.00,WUHU216DAVISVP2,2013-09-26 22:22:00,
2013-09-26 16:27:00,71.1,48.0,29.46,NW,326,0.0,8.0,44,0.00,,,0.00,WUHU216DAVISVP2,2013-09-26 22:27:00,
2013-09-26 16:32:00,71.1,47.5,29.46,North,357,4.0,8.0,43,0.00,,,0.00,WUHU216DAVISVP2,2013-09-26 22:32:00,
2013-09-26 16:37:00,70.5,47.5,29.46,ENE,74,1.0,8.0,44,0.00,,,0.00,WUHU216DAVISVP2,2013-09-26 22:37:00,
2013-09-26 16:42:00,70.9,47.8,29.45,NW,321,1.0,6.0,44,0.00,,,0.00,WUHU216DAVISVP2,2013-09-26 22:42:00,
2013-09-26 16:47:00,71.0,47.9,29.46,NE,48,2.0,6.0,44,0.00,,,0.00,WUHU216DAVISVP2,2013-09-26 22:47:00,
2013-09-26 16:52:00,71.0,47.3,29.46,NE,46,0.0,6.0,43,0.00,,,0.00,WUHU216DAVISVP2,2013-09-26 22:52:00,
2013-09-26 16:57:00,71.3,48.2,29.46,WNW,294,1.0,6.0,44,0.00,,,0.00,WUHU216DAVISVP2,2013-09-26 22:57:00,
2013-09-26 17:02:00,71.3,47.6,29.45,East,98,3.0,4.0,43,0.00,,,0.00,WUHU216DAVISVP2,2013-09-26 23:02:00,
2013-09-26 17:07:00,71.0,47.3,29.46,WNW,291,0.0,4.0,43,0.00,,,0.00,WUHU216DAVISVP2,2013-09-26 23:07:00,
2013-09-26 17:12:00,71.2,47.5,29.46,NE,44,5.0,6.0,43,0.00,,,0.00,WUHU216DAVISVP2,2013-09-26 23:12:00,
2013-09-26 17:17:00,70.7,48.3,29.46,NE,42,1.0,6.0,45,0.00,,,0.00,WUHU216DAVISVP2,2013-09-26 23:17:00,
2013-09-26 17:22:00,70.6,47.6,29.46,NE,56,1.0,6.0,44,0.00,,,0.00,WUHU216DAVISVP2,2013-09-26 23:22:00,
2013-09-26 17:27:00,71.1,48.0,29.46,NW,311,2.0,6.0,44,0.00,,,0.00,WUHU216DAVISVP2,2013-09-26 23:27:00,
2013-09-26 17:32:00,70.8,47.8,29.46,WNW,285,1.0,4.0,44,0.00,,,0.00,WUHU216DAVISVP2,2013-09-26 23:32:00,
2013-09-26 17:37:00,71.0,47.9,29.46,ENE,75,0.0,4.0,44,0.00,,,0.00,WUHU216DAVISVP2,2013-09-26 23:37:00,
2013-09-26 17:42:00,70.6,47.6,29.46,NNE,24,2.0,5.0,44,0.00,,,0.00,WUHU216DAVISVP2,2013-09-26 23:42:00,
2013-09-26 17:47:00,70.3,47.9,29.46,NE,39,2.0,5.0,45,0.00,,,0.00,WUHU216DAVISVP2,2013-09-26 23:47:00,
2013-09-26 17:52:00,69.5,47.2,29.46,NNW,342,1.0,5.0,45,0.00,,,0.00,WUHU216DAVISVP2,2013-09-26 23:52:00,
2013-09-26 17:57:00,68.7,47.7,29.46,WNW,293,0.0,5.0,47,0.00,,,0.00,WUHU216DAVISVP2,2013-09-26 23:57:00,
2013-09-26 18:02:00,68.3,47.8,29.46,NNE,20,0.0,5.0,48,0.00,,,0.00,WUHU216DAVISVP2,2013-09-27 00:02:00,
2013-09-26 18:10:00,67.9,48.0,29.47,NNW,339,6.0,6.0,49,0.00,,,0.00,WUHU216DAVISVP2,2013-09-27 00:10:00,
2013-09-26 18:15:00,67.1,47.3,29.47,NW,325,2.0,8.0,49,0.00,,,0.00,WUHU216DAVISVP2,2013-09-27 00:15:00,
2013-09-26 18:20:00,66.6,47.4,29.47,NNW,345,0.0,8.0,50,0.00,,,0.00,WUHU216DAVISVP2,2013-09-27 00:20:00,
2013-09-26 18:25:00,66.1,47.5,29.47,NW,323,2.0,8.0,51,0.00,,,0.00,WUHU216DAVISVP2,2013-09-27 00:25:00,
2013-09-26 18:30:00,65.7,47.6,29.47,WNW,288,1.0,7.0,52,0.00,,,0.00,WUHU216DAVISVP2,2013-09-27 00:30:00,
2013-09-26 18:35:00,65.3,46.8,29.47,NW,316,0.0,5.0,51,0.00,,,0.00,WUHU216DAVISVP2,2013-09-27 00:35:00,
2013-09-26 18:40:00,65.0,47.5,29.47,NNW,339,2.0,5.0,53,0.00,,,0.00,WUHU216DAVISVP2,2013-09-27 00:40:00,
2013-09-26 18:45:00,64.6,47.2,29.48,North,351,1.0,5.0,53,0.00,,,0.00,WUHU216DAVISVP2,2013-09-27 00:45:00,
2013-09-26 18:50:00,64.2,47.3,29.48,NW,306,0.0,5.0,54,0.00,,,0.00,WUHU216DAVISVP2,2013-09-27 00:50:00,
2013-09-26 18:55:00,63.8,46.3,29.48,NW,316,2.0,4.0,53,0.00,,,0.00,WUHU216DAVISVP2,2013-09-27 00:55:00,
2013-09-26 19:00:00,63.6,46.7,29.48,NNW,337,1.0,5.0,54,0.00,,,0.00,WUHU216DAVISVP2,2013-09-27 01:00:00,
2013-09-26 19:05:00,63.5,46.6,29.48,NNW,328,0.0,6.0,54,0.00,,,0.00,WUHU216DAVISVP2,2013-09-27 01:05:00,
2013-09-26 19:10:00,63.2,46.4,29.49,WNW,299,0.0,6.0,54,0.00,,,0.00,WUHU216DAVISVP2,2013-09-27 01:10:00,
2013-09-26 19:15:00,63.0,46.2,29.49,NW,316,3.0,6.0,54,0.00,,,0.00,WUHU216DAVISVP2,2013-09-27 01:15:00,
2013-09-26 19:20:00,62.9,46.1,29.49,NW,323,1.0,6.0,54,0.00,,,0.00,WUHU216DAVISVP2,2013-09-27 01:20:00,
2013-09-26 19:25:00,62.7,45.8,29.49,NW,325,1.0,6.0,54,0.00,,,0.00,WUHU216DAVISVP2,2013-09-27 01:25:00,
2013-09-26 19:30:00,62.4,46.1,29.49,North,354,1.0,5.0,55,0.00,,,0.00,WUHU216DAVISVP2,2013-09-27 01:30:00,
2013-09-26 19:35:00,62.1,46.8,29.49,North,10,1.0,5.0,57,0.00,,,0.00,WUHU216DAVISVP2,2013-09-27 01:35:00,
2013-09-26 19:40:00,61.8,47.0,29.50,West,280,1.0,4.0,58,0.00,,,0.00,WUHU216DAVISVP2,2013-09-27 01:40:00,
2013-09-26 19:45:00,61.6,46.8,29.50,WNW,300,0.0,3.0,58,0.00,,,0.00,WUHU216DAVISVP2,2013-09-27 01:45:00,
2013-09-26 19:50:00,61.5,46.7,29.51,WNW,298,0.0,6.0,58,0.00,,,0.00,WUHU216DAVISVP2,2013-09-27 01:50:00,
2013-09-26 19:55:00,61.4,46.6,29.51,WNW,302,1.0,6.0,58,0.00,,,0.00,WUHU216DAVISVP2,2013-09-27 01:55:00,
2013-09-26 20:00:00,61.2,46.8,29.51,WNW,285,0.0,6.0,59,0.00,,,0.00,WUHU216DAVISVP2,2013-09-27 02:00:00,
2013-09-26 20:05:00,60.9,46.6,29.51,West,268,0.0,6.0,59,0.00,,,0.00,WUHU216DAVISVP2,2013-09-27 02:05:00,
2013-09-26 20:10:00,60.6,46.8,29.51,NW,317,0.0,3.0,60,0.00,,,0.00,WUHU216DAVISVP2,2013-09-27 02:10:00,
2013-09-26 20:15:00,60.3,46.9,29.52,NW,317,0.0,3.0,61,0.00,,,0.00,WUHU216DAVISVP2,2013-09-27 02:15:00,
2013-09-26 20:20:00,59.7,47.2,29.52,NW,317,0.0,3.0,63,0.00,,,0.00,WUHU216DAVISVP2,2013-09-27 02:20:00,
2013-09-26 20:25:00,59.1,47.1,29.52,NW,317,0.0,1.0,64,0.00,,,0.00,WUHU216DAVISVP2,2013-09-27 02:25:00,
2013-09-26 20:30:00,58.4,47.2,29.52,NW,317,0.0,0.0,66,0.00,,,0.00,WUHU216DAVISVP2,2013-09-27 02:30:00,
2013-09-26 20:35:00,57.7,46.8,29.52,NW,317,0.0,0.0,67,0.00,,,0.00,WUHU216DAVISVP2,2013-09-27 02:35:00,
2013-09-26 20:40:00,57.1,47.2,29.52,NW,317,0.0,0.0,69,0.00,,,0.00,WUHU216DAVISVP2,2013-09-27 02:40:00,
2013-09-26 20:45:00,56.6,47.1,29.52,NW,317,0.0,0.0,70,0.00,,,0.00,WUHU216DAVISVP2,2013-09-27 02:45:00,
2013-09-26 20:50:00,56.2,47.4,29.53,NW,317,0.0,0.0,72,0.00,,,0.00,WUHU216DAVISVP2,2013-09-27 02:50:00,
2013-09-26 20:55:00,55.9,47.1,29.53,NW,317,0.0,0.0,72,0.00,,,0.00,WUHU216DAVISVP2,2013-09-27 02:55:00,
2013-09-26 21:00:00,55.6,47.2,29.53,NW,317,0.0,0.0,73,0.00,,,0.00,WUHU216DAVISVP2,2013-09-27 03:00:00,
2013-09-26 21:05:00,55.8,47.7,29.53,NW,318,0.0,1.0,74,0.00,,,0.00,WUHU216DAVISVP2,2013-09-27 03:05:00,
2013-09-26 21:10:00,55.6,47.2,29.53,NW,318,0.0,1.0,73,0.00,,,0.00,WUHU216DAVISVP2,2013-09-27 03:10:00,
2013-09-26 21:15:00,55.3,47.2,29.53,NW,318,0.0,1.0,74,0.00,,,0.00,WUHU216DAVISVP2,2013-09-27 03:15:00,
2013-09-26 21:20:00,54.9,47.2,29.53,NW,318,0.0,1.0,75,0.00,,,0.00,WUHU216DAVISVP2,2013-09-27 03:20:00,
2013-09-26 21:25:00,54.7,47.4,29.53,NW,318,0.0,0.0,76,0.00,,,0.00,WUHU216DAVISVP2,2013-09-27 03:25:00,
2013-09-26 21:30:00,54.3,47.3,29.53,NW,318,0.0,0.0,77,0.00,,,0.00,WUHU216DAVISVP2,2013-09-27 03:30:00,
2013-09-26 21:35:00,54.1,47.4,29.53,NW,318,0.0,0.0,78,0.00,,,0.00,WUHU216DAVISVP2,2013-09-27 03:35:00,
2013-09-26 21:40:00,53.8,47.4,29.53,NW,318,0.0,0.0,79,0.00,,,0.00,WUHU216DAVISVP2,2013-09-27 03:40:00,
2013-09-26 21:45:00,53.7,47.3,29.53,NW,318,0.0,0.0,79,0.00,,,0.00,WUHU216DAVISVP2,2013-09-27 03:45:00,
2013-09-26 21:50:00,53.4,47.1,29.53,NW,318,0.0,0.0,79,0.00,,,0.00,WUHU216DAVISVP2,2013-09-27 03:50:00,
2013-09-26 21:56:00,53.1,47.5,29.53,NW,318,0.0,0.0,81,0.00,,,0.00,WUHU216DAVISVP2,2013-09-27 03:56:00,
2013-09-26 22:01:00,52.8,47.2,29.53,NW,318,0.0,0.0,81,0.00,,,0.00,WUHU216DAVISVP2,2013-09-27 04:01:00,
2013-09-26 22:06:00,52.4,47.1,29.54,NW,318,0.0,0.0,82,0.00,,,0.00,WUHU216DAVISVP2,2013-09-27 04:06:00,
2013-09-26 22:11:00,52.2,47.2,29.54,NW,318,0.0,0.0,83,0.00,,,0.00,WUHU216DAVISVP2,2013-09-27 04:11:00,
2013-09-26 22:16:00,52.2,47.2,29.54,NW,318,0.0,0.0,83,0.00,,,0.00,WUHU216DAVISVP2,2013-09-27 04:16:00,
2013-09-26 22:21:00,52.2,47.2,29.54,NW,318,0.0,0.0,83,0.00,,,0.00,WUHU216DAVISVP2,2013-09-27 04:21:00,
2013-09-26 22:26:00,52.2,47.5,29.54,NW,318,0.0,0.0,84,0.00,,,0.00,WUHU216DAVISVP2,2013-09-27 04:26:00,
2013-09-26 22:31:00,52.1,47.1,29.54,NW,318,0.0,0.0,83,0.00,,,0.00,WUHU216DAVISVP2,2013-09-27 04:31:00,
2013-09-26 22:36:00,51.9,47.2,29.54,NW,318,0.0,0.0,84,0.00,,,0.00,WUHU216DAVISVP2,2013-09-27 04:36:00,
2013-09-26 22:41:00,52.0,47.3,29.54,NW,318,0.0,0.0,84,0.00,,,0.00,WUHU216DAVISVP2,2013-09-27 04:41:00,
2013-09-26 22:46:00,51.8,46.8,29.54,NW,314,0.0,0.0,83,0.00,,,0.00,WUHU216DAVISVP2,2013-09-27 04:46:00,
2013-09-26 22:51:00,52.0,47.0,29.54,NW,306,0.0,0.0,83,0.00,,,0.00,WUHU216DAVISVP2,2013-09-27 04:51:00,
2013-09-26 22:56:00,52.0,47.0,29.54,NW,306,0.0,0.0,83,0.00,,,0.00,WUHU216DAVISVP2,2013-09-27 04:56:00,
2013-09-26 23:01:00,51.8,46.8,29.54,NW,306,0.0,0.0,83,0.00,,,0.00,WUHU216DAVISVP2,2013-09-27 05:01:00,
2013-09-26 23:06:00,51.4,46.7,29.55,NW,306,0.0,0.0,84,0.00,,,0.00,WUHU216DAVISVP2,2013-09-27 05:06:00,
2013-09-26 23:11:00,51.0,46.6,29.55,NW,306,0.0,0.0,85,0.00,,,0.00,WUHU216DAVISVP2,2013-09-27 05:11:00,
2013-09-26 23:16:00,50.6,46.6,29.55,NW,306,0.0,0.0,86,0.00,,,0.00,WUHU216DAVISVP2,2013-09-27 05:16:00,
2013-09-26 23:21:00,50.3,46.3,29.55,NW,306,0.0,0.0,86,0.00,,,0.00,WUHU216DAVISVP2,2013-09-27 05:21:00,
2013-09-26 23:26:00,50.4,46.7,29.55,NW,306,0.0,0.0,87,0.00,,,0.00,WUHU216DAVISVP2,2013-09-27 05:26:00,
2013-09-26 23:31:00,50.4,47.0,29.55,SSE,160,0.0,1.0,88,0.00,,,0.00,WUHU216DAVISVP2,2013-09-27 05:31:00,
2013-09-26 23:36:00,50.5,46.8,29.55,SSE,160,0.0,1.0,87,0.00,,,0.00,WUHU216DAVISVP2,2013-09-27 05:36:00,
2013-09-26 23:41:00,51.0,46.9,29.56,SE,146,0.0,1.0,86,0.00,,,0.00,WUHU216DAVISVP2,2013-09-27 05:41:00,
2013-09-26 23:46:00,51.2,46.8,29.55,SE,146,0.0,1.0,85,0.00,,,0.00,WUHU216DAVISVP2,2013-09-27 05:46:00,
2013-09-26 23:51:00,51.1,46.7,29.55,SE,146,0.0,0.0,85,0.00,,,0.00,WUHU216DAVISVP2,2013-09-27 05:51:00,
2013-09-26 23:56:00,51.0,46.9,29.56,SE,130,0.0,1.0,86,0.00,,,0.00,WUHU216DAVISVP2,2013-09-27 05:56:00,